Time,TemperatureF,DewpointF,PressureIn,WindDirection,WindDirectionDegrees,WindSpeedMPH,WindSpeedGustMPH,Humidity,HourlyPrecipIn,Conditions,Clouds,dailyrainin,SoftwareType,DateUTC
2013-10-09 00:04:00,56.8,48.2,30.01,SSE,163,0.0,0.0,73,0.00,,,0.00,Wunderground v.1.15,2013-10-09 05:04:00,
2013-10-09 00:10:00,56.9,48.0,30.01,SSW,194,0.0,0.0,72,0.00,,,0.00,Wunderground v.1.15,2013-10-09 05:10:00,
2013-10-09 00:15:00,57.1,48.2,30.01,North,360,0.0,0.0,72,0.00,,,0.00,Wunderground v.1.15,2013-10-09 05:15:00,
2013-10-09 00:21:00,57.1,48.2,30.01,SSW,192,0.0,0.0,72,0.00,,,0.00,Wunderground v.1.15,2013-10-09 05:21:00,
2013-10-09 00:26:00,57.1,48.2,30.02,SE,129,0.0,0.0,72,0.00,,,0.00,Wunderground v.1.15,2013-10-09 05:26:00,
2013-10-09 00:32:00,57.1,48.2,30.02,South,188,0.0,0.0,72,0.00,,,0.00,Wunderground v.1.15,2013-10-09 05:32:00,
2013-10-09 00:38:00,57.0,48.1,30.02,SSW,194,0.0,0.0,72,0.00,,,0.00,Wunderground v.1.15,2013-10-09 05:38:00,
2013-10-09 00:43:00,56.8,48.2,30.02,SW,236,0.0,0.0,73,0.00,,,0.00,Wunderground v.1.15,2013-10-09 05:43:00,
2013-10-09 00:49:00,56.6,48.0,30.02,SSE,157,0.0,0.0,73,0.00,,,0.00,Wunderground v.1.15,2013-10-09 05:49:00,
2013-10-09 00:54:00,56.5,47.9,30.02,SE,138,0.0,0.0,73,0.00,,,0.00,Wunderground v.1.15,2013-10-09 05:54:00,
2013-10-09 01:00:00,56.5,47.9,30.02,SSE,161,0.0,0.0,73,0.00,,,0.00,Wunderground v.1.15,2013-10-09 06:00:00,
2013-10-09 01:06:00,56.4,48.2,30.02,South,179,0.0,0.0,74,0.00,,,0.00,Wunderground v.1.15,2013-10-09 06:06:00,
2013-10-09 01:11:00,56.2,48.0,30.02,ESE,118,0.0,0.0,74,0.00,,,0.00,Wunderground v.1.15,2013-10-09 06:11:00,
2013-10-09 01:16:00,56.0,47.8,30.03,ESE,120,0.0,0.0,74,0.00,,,0.00,Wunderground v.1.15,2013-10-09 06:16:00,
2013-10-09 01:22:00,55.8,48.0,30.03,SSE,154,0.0,0.0,75,0.00,,,0.00,Wunderground v.1.15,2013-10-09 06:22:00,
2013-10-09 01:28:00,55.7,47.9,30.03,SE,146,0.0,0.0,75,0.00,,,0.00,Wunderground v.1.15,2013-10-09 06:28:00,
2013-10-09 01:33:00,55.4,47.6,30.03,SW,229,0.0,0.0,75,0.00,,,0.00,Wunderground v.1.15,2013-10-09 06:33:00,
2013-10-09 01:39:00,55.1,47.7,30.03,SSE,164,0.0,0.0,76,0.00,,,0.00,Wunderground v.1.15,2013-10-09 06:39:00,
2013-10-09 01:44:00,54.8,47.4,30.03,SE,130,0.0,0.0,76,0.00,,,0.00,Wunderground v.1.15,2013-10-09 06:44:00,
2013-10-09 01:50:00,54.4,47.3,30.03,SE,131,0.0,0.0,77,0.00,,,0.00,Wunderground v.1.15,2013-10-09 06:50:00,
2013-10-09 01:55:00,54.1,47.4,30.03,ENE,75,0.0,0.0,78,0.00,,,0.00,Wunderground v.1.15,2013-10-09 06:55:00,
2013-10-09 02:00:00,53.8,47.1,30.03,SE,130,0.0,0.0,78,0.00,,,0.00,Wunderground v.1.15,2013-10-09 07:00:00,
2013-10-09 02:06:00,53.5,47.1,30.04,ENE,74,0.0,0.0,79,0.00,,,0.00,Wunderground v.1.15,2013-10-09 07:06:00,
2013-10-09 02:12:00,53.1,47.1,30.04,NW,321,0.0,0.0,80,0.00,,,0.00,Wunderground v.1.15,2013-10-09 07:12:00,
2013-10-09 02:18:00,52.6,46.9,30.04,SSE,147,0.0,0.0,81,0.00,,,0.00,Wunderground v.1.15,2013-10-09 07:18:00,
2013-10-09 02:24:00,52.3,47.0,30.04,SE,128,0.0,0.0,82,0.00,,,0.00,Wunderground v.1.15,2013-10-09 07:24:00,
2013-10-09 02:30:00,52.0,46.7,30.04,SSW,206,0.0,0.0,82,0.00,,,0.00,Wunderground v.1.15,2013-10-09 07:30:00,
2013-10-09 02:35:00,51.8,46.8,30.04,ESE,109,0.0,0.0,83,0.00,,,0.00,Wunderground v.1.15,2013-10-09 07:35:00,
2013-10-09 02:41:00,51.7,46.7,30.04,ESE,117,0.0,0.0,83,0.00,,,0.00,Wunderground v.1.15,2013-10-09 07:41:00,
2013-10-09 02:46:00,51.7,46.7,30.04,ESE,117,0.0,0.0,83,0.00,,,0.00,Wunderground v.1.15,2013-10-09 07:46:00,
2013-10-09 02:52:00,51.6,46.9,30.04,SE,140,0.0,0.0,84,0.00,,,0.00,Wunderground v.1.15,2013-10-09 07:52:00,
2013-10-09 02:57:00,51.4,46.7,30.05,SE,140,0.0,0.0,84,0.00,,,0.00,Wunderground v.1.15,2013-10-09 07:57:00,
2013-10-09 03:03:00,51.1,46.7,30.05,South,190,0.0,0.0,85,0.00,,,0.00,Wunderground v.1.15,2013-10-09 08:03:00,
2013-10-09 03:09:00,50.8,46.5,30.05,SSW,196,0.0,0.0,85,0.00,,,0.00,Wunderground v.1.15,2013-10-09 08:09:00,
2013-10-09 03:14:00,50.5,46.2,30.05,SSW,196,0.0,0.0,85,0.00,,,0.00,Wunderground v.1.15,2013-10-09 08:14:00,
2013-10-09 03:20:00,50.3,46.3,30.05,SSW,196,0.0,0.0,86,0.00,,,0.00,Wunderground v.1.15,2013-10-09 08:20:00,
2013-10-09 03:25:00,50.1,46.1,30.05,South,176,0.0,0.0,86,0.00,,,0.00,Wunderground v.1.15,2013-10-09 08:25:00,
2013-10-09 03:31:00,49.9,46.2,30.05,South,171,0.0,0.0,87,0.00,,,0.00,Wunderground v.1.15,2013-10-09 08:31:00,
2013-10-09 03:36:00,49.8,46.4,30.05,South,173,0.0,0.0,88,0.00,,,0.00,Wunderground v.1.15,2013-10-09 08:36:00,
2013-10-09 03:42:00,49.6,46.2,30.05,South,173,0.0,0.0,88,0.00,,,0.00,Wunderground v.1.15,2013-10-09 08:42:00,
2013-10-09 03:47:00,49.4,46.0,30.06,South,173,0.0,0.0,88,0.00,,,0.00,Wunderground v.1.15,2013-10-09 08:47:00,
2013-10-09 03:53:00,49.1,45.7,30.06,South,173,0.0,0.0,88,0.00,,,0.00,Wunderground v.1.15,2013-10-09 08:53:00,
2013-10-09 03:58:00,48.9,45.8,30.06,South,173,0.0,0.0,89,0.00,,,0.00,Wunderground v.1.15,2013-10-09 08:58:00,
2013-10-09 04:04:00,48.7,45.6,30.06,South,173,0.0,0.0,89,0.00,,,0.00,Wunderground v.1.15,2013-10-09 09:04:00,
2013-10-09 04:10:00,48.5,45.7,30.06,SSE,161,0.0,0.0,90,0.00,,,0.00,Wunderground v.1.15,2013-10-09 09:10:00,
2013-10-09 04:15:00,48.3,45.5,30.06,SSE,161,0.0,0.0,90,0.00,,,0.00,Wunderground v.1.15,2013-10-09 09:15:00,
2013-10-09 04:21:00,48.1,45.3,30.06,SSE,161,0.0,0.0,90,0.00,,,0.00,Wunderground v.1.15,2013-10-09 09:21:00,
2013-10-09 04:26:00,48.1,45.3,30.06,SSE,161,0.0,0.0,90,0.00,,,0.00,Wunderground v.1.15,2013-10-09 09:26:00,
2013-10-09 04:32:00,47.9,45.4,30.06,SSE,163,0.0,0.0,91,0.00,,,0.00,Wunderground v.1.15,2013-10-09 09:32:00,
2013-10-09 04:37:00,47.7,45.2,30.06,SSE,163,0.0,0.0,91,0.00,,,0.00,Wunderground v.1.15,2013-10-09 09:37:00,
2013-10-09 04:43:00,47.6,45.1,30.06,SSE,163,0.0,0.0,91,0.00,,,0.00,Wunderground v.1.15,2013-10-09 09:43:00,
2013-10-09 04:48:00,47.8,45.3,30.06,SSE,163,0.0,0.0,91,0.00,,,0.00,Wunderground v.1.15,2013-10-09 09:48:00,
2013-10-09 04:54:00,47.7,45.2,30.07,SSE,163,0.0,0.0,91,0.00,,,0.00,Wunderground v.1.15,2013-10-09 09:54:00,
2013-10-09 05:00:00,47.6,45.1,30.07,SSE,163,0.0,0.0,91,0.00,,,0.00,Wunderground v.1.15,2013-10-09 10:00:00,
2013-10-09 05:06:00,47.4,44.9,30.07,SSE,163,0.0,0.0,91,0.00,,,0.00,Wunderground v.1.15,2013-10-09 10:06:00,
2013-10-09 05:12:00,47.2,44.7,30.07,SSE,163,0.0,0.0,91,0.00,,,0.00,Wunderground v.1.15,2013-10-09 10:12:00,
2013-10-09 05:17:00,47.1,44.9,30.07,SSE,163,0.0,0.0,92,0.00,,,0.00,Wunderground v.1.15,2013-10-09 10:17:00,
2013-10-09 05:23:00,47.1,44.9,30.07,SSE,163,0.0,0.0,92,0.00,,,0.00,Wunderground v.1.15,2013-10-09 10:23:00,
2013-10-09 05:28:00,47.0,44.5,30.07,SSE,163,0.0,0.0,91,0.00,,,0.00,Wunderground v.1.15,2013-10-09 10:28:00,
2013-10-09 05:34:00,46.9,44.7,30.07,SSE,163,0.0,0.0,92,0.00,,,0.00,Wunderground v.1.15,2013-10-09 10:34:00,
2013-10-09 05:39:00,46.9,44.7,30.07,SSE,150,0.0,0.0,92,0.00,,,0.00,Wunderground v.1.15,2013-10-09 10:39:00,
2013-10-09 05:45:00,46.8,44.6,30.07,SSE,150,0.0,0.0,92,0.00,,,0.00,Wunderground v.1.15,2013-10-09 10:45:00,
2013-10-09 05:50:00,46.6,44.4,30.07,SSE,150,0.0,0.0,92,0.00,,,0.00,Wunderground v.1.15,2013-10-09 10:50:00,
2013-10-09 05:56:00,46.3,43.8,30.07,SSE,150,0.0,0.0,91,0.00,,,0.00,Wunderground v.1.15,2013-10-09 10:56:00,
2013-10-09 06:02:00,45.9,43.4,30.07,SSE,150,0.0,0.0,91,0.00,,,0.00,Wunderground v.1.15,2013-10-09 11:02:00,
2013-10-09 06:07:00,45.9,43.7,30.07,SSE,150,0.0,0.0,92,0.00,,,0.00,Wunderground v.1.15,2013-10-09 11:07:00,
2013-10-09 06:13:00,45.9,44.0,30.07,SSE,150,0.0,0.0,93,0.00,,,0.00,Wunderground v.1.15,2013-10-09 11:13:00,
2013-10-09 06:18:00,45.9,44.0,30.07,SSE,150,0.0,0.0,93,0.00,,,0.00,Wunderground v.1.15,2013-10-09 11:18:00,
2013-10-09 06:24:00,45.9,44.0,30.07,SSE,150,0.0,0.0,93,0.00,,,0.00,Wunderground v.1.15,2013-10-09 11:24:00,
2013-10-09 06:29:00,46.0,44.1,30.08,SE,144,0.0,0.0,93,0.00,,,0.00,Wunderground v.1.15,2013-10-09 11:29:00,
2013-10-09 06:35:00,46.0,44.1,30.07,SE,144,0.0,0.0,93,0.00,,,0.00,Wunderground v.1.15,2013-10-09 11:35:00,
2013-10-09 06:40:00,46.0,44.1,30.07,SE,127,0.0,0.0,93,0.00,,,0.00,Wunderground v.1.15,2013-10-09 11:40:00,
2013-10-09 06:46:00,46.0,44.1,30.07,SE,143,0.0,0.0,93,0.00,,,0.00,Wunderground v.1.15,2013-10-09 11:46:00,
2013-10-09 06:52:00,46.0,44.1,30.07,SSE,162,0.0,0.0,93,0.00,,,0.00,Wunderground v.1.15,2013-10-09 11:52:00,
2013-10-09 06:58:00,46.0,44.1,30.07,SSE,162,0.0,0.0,93,0.00,,,0.00,Wunderground v.1.15,2013-10-09 11:58:00,
2013-10-09 07:04:00,45.8,43.9,30.07,SSE,153,0.0,0.0,93,0.00,,,0.00,Wunderground v.1.15,2013-10-09 12:04:00,
2013-10-09 07:09:00,46.0,44.1,30.07,SSE,167,0.0,0.0,93,0.00,,,0.00,Wunderground v.1.15,2013-10-09 12:09:00,
2013-10-09 07:15:00,46.1,44.2,30.07,South,178,0.0,0.0,93,0.00,,,0.00,Wunderground v.1.15,2013-10-09 12:15:00,
2013-10-09 07:16:00,46.1,44.2,30.07,South,178,0.0,0.0,93,0.00,,,0.00,Wunderground v.1.15,2013-10-09 12:16:00,
2013-10-09 07:22:00,46.0,44.1,30.07,SSE,149,0.0,0.0,93,0.00,,,0.00,Wunderground v.1.15,2013-10-09 12:22:00,
2013-10-09 07:28:00,46.3,44.7,30.07,ESE,121,0.0,0.0,94,0.00,,,0.00,Wunderground v.1.15,2013-10-09 12:28:00,
2013-10-09 07:34:00,46.5,44.9,30.07,ESE,123,0.0,0.0,94,0.00,,,0.00,Wunderground v.1.15,2013-10-09 12:34:00,
2013-10-09 07:40:00,46.9,45.3,30.07,SSE,165,0.0,0.0,94,0.00,,,0.00,Wunderground v.1.15,2013-10-09 12:40:00,
2013-10-09 07:46:00,47.3,45.7,30.07,SE,126,0.0,0.0,94,0.00,,,0.00,Wunderground v.1.15,2013-10-09 12:46:00,
2013-10-09 07:51:00,47.7,46.1,30.07,SE,132,0.0,0.0,94,0.00,,,0.00,Wunderground v.1.15,2013-10-09 12:51:00,
2013-10-09 07:57:00,48.2,46.6,30.08,SE,132,0.0,0.0,94,0.00,,,0.00,Wunderground v.1.15,2013-10-09 12:57:00,
2013-10-09 08:03:00,48.8,46.9,30.08,South,182,0.0,0.0,93,0.00,,,0.00,Wunderground v.1.15,2013-10-09 13:03:00,
2013-10-09 08:09:00,49.4,47.2,30.08,ESE,117,0.0,0.0,92,0.00,,,0.00,Wunderground v.1.15,2013-10-09 13:09:00,
2013-10-09 08:15:00,49.9,47.4,30.08,ESE,121,0.0,0.0,91,0.00,,,0.00,Wunderground v.1.15,2013-10-09 13:15:00,
2013-10-09 08:20:00,50.3,47.8,30.08,SSW,198,0.0,0.0,91,0.00,,,0.00,Wunderground v.1.15,2013-10-09 13:20:00,
2013-10-09 08:26:00,50.9,48.1,30.08,South,173,0.0,0.0,90,0.00,,,0.00,Wunderground v.1.15,2013-10-09 13:26:00,
2013-10-09 08:32:00,51.6,48.5,30.08,SSE,155,0.0,0.0,89,0.00,,,0.00,Wunderground v.1.15,2013-10-09 13:32:00,
2013-10-09 08:38:00,52.3,48.9,30.08,SW,217,0.0,0.0,88,0.00,,,0.00,Wunderground v.1.15,2013-10-09 13:38:00,
2013-10-09 08:44:00,53.1,49.3,30.08,SSE,162,0.0,0.0,87,0.00,,,0.00,Wunderground v.1.15,2013-10-09 13:44:00,
2013-10-09 08:50:00,54.1,50.0,30.09,South,173,0.0,0.0,86,0.00,,,0.00,Wunderground v.1.15,2013-10-09 13:50:00,
2013-10-09 08:55:00,54.9,50.5,30.08,ESE,105,0.0,0.0,85,0.00,,,0.00,Wunderground v.1.15,2013-10-09 13:55:00,
2013-10-09 09:00:00,55.5,50.7,30.09,SSE,165,0.0,0.0,84,0.00,,,0.00,Wunderground v.1.15,2013-10-09 14:00:00,
2013-10-09 09:06:00,56.4,51.0,30.09,ESE,123,0.0,0.0,82,0.00,,,0.00,Wunderground v.1.15,2013-10-09 14:06:00,
2013-10-09 09:12:00,57.2,51.1,30.09,SW,219,0.0,0.0,80,0.00,,,0.00,Wunderground v.1.15,2013-10-09 14:12:00,
2013-10-09 09:17:00,57.7,51.2,30.08,ESE,111,0.0,0.0,79,0.00,,,0.00,Wunderground v.1.15,2013-10-09 14:17:00,
2013-10-09 09:23:00,58.2,51.4,30.09,NE,41,0.0,0.0,78,0.00,,,0.00,Wunderground v.1.15,2013-10-09 14:23:00,
2013-10-09 09:29:00,58.4,51.6,30.09,SSW,192,0.0,0.0,78,0.00,,,0.00,Wunderground v.1.15,2013-10-09 14:29:00,
2013-10-09 09:35:00,58.8,51.6,30.09,SSE,164,0.0,0.0,77,0.00,,,0.00,Wunderground v.1.15,2013-10-09 14:35:00,
2013-10-09 09:40:00,59.3,52.1,30.09,ESE,111,0.0,0.0,77,0.00,,,0.00,Wunderground v.1.15,2013-10-09 14:40:00,
2013-10-09 09:46:00,59.7,52.5,30.09,South,169,0.0,0.0,77,0.00,,,0.00,Wunderground v.1.15,2013-10-09 14:46:00,
2013-10-09 09:52:00,59.9,51.6,30.09,SSE,156,0.0,0.0,74,0.00,,,0.00,Wunderground v.1.15,2013-10-09 14:52:00,
2013-10-09 09:58:00,60.1,52.5,30.09,SE,136,0.0,0.0,76,0.00,,,0.00,Wunderground v.1.15,2013-10-09 14:58:00,
2013-10-09 10:03:00,60.0,51.7,30.09,East,98,0.0,0.0,74,0.00,,,0.00,Wunderground v.1.15,2013-10-09 15:03:00,
2013-10-09 10:09:00,60.2,52.6,30.09,SSE,150,0.0,0.0,76,0.00,,,0.00,Wunderground v.1.15,2013-10-09 15:09:00,
2013-10-09 10:15:00,60.7,52.7,30.10,SSW,195,0.0,0.0,75,0.00,,,0.00,Wunderground v.1.15,2013-10-09 15:15:00,
2013-10-09 10:20:00,61.2,52.8,30.10,SW,221,0.0,0.0,74,0.00,,,0.00,Wunderground v.1.15,2013-10-09 15:20:00,
2013-10-09 10:26:00,62.0,53.6,30.10,SW,235,0.0,0.0,74,0.00,,,0.00,Wunderground v.1.15,2013-10-09 15:26:00,
2013-10-09 10:31:00,62.6,53.4,30.10,SE,124,0.0,0.0,72,0.00,,,0.00,Wunderground v.1.15,2013-10-09 15:31:00,
2013-10-09 10:37:00,63.4,53.4,30.10,NE,48,0.0,0.0,70,0.00,,,0.00,Wunderground v.1.15,2013-10-09 15:37:00,
2013-10-09 10:43:00,63.6,53.6,30.10,SW,226,0.0,0.0,70,0.00,,,0.00,Wunderground v.1.15,2013-10-09 15:43:00,
2013-10-09 10:49:00,64.0,54.0,30.10,SW,226,0.0,0.0,70,0.00,,,0.00,Wunderground v.1.15,2013-10-09 15:49:00,
2013-10-09 10:55:00,64.5,54.1,30.10,SSW,196,0.0,0.0,69,0.00,,,0.00,Wunderground v.1.15,2013-10-09 15:55:00,
2013-10-09 11:00:00,65.3,55.3,30.10,WSW,257,0.0,0.0,70,0.00,,,0.00,Wunderground v.1.15,2013-10-09 16:00:00,
2013-10-09 11:06:00,65.7,54.0,30.10,SSW,208,0.0,0.0,66,0.00,,,0.00,Wunderground v.1.15,2013-10-09 16:06:00,
2013-10-09 11:12:00,66.1,54.8,30.10,SSE,167,0.0,0.0,67,0.00,,,0.00,Wunderground v.1.15,2013-10-09 16:12:00,
2013-10-09 11:17:00,66.1,54.4,30.10,SW,214,0.0,0.0,66,0.00,,,0.00,Wunderground v.1.15,2013-10-09 16:17:00,
2013-10-09 11:23:00,66.0,54.3,30.10,West,259,0.0,0.0,66,0.00,,,0.00,Wunderground v.1.15,2013-10-09 16:23:00,
2013-10-09 11:28:00,65.9,54.2,30.10,WSW,239,0.0,0.0,66,0.00,,,0.00,Wunderground v.1.15,2013-10-09 16:28:00,
2013-10-09 11:34:00,66.2,54.5,30.09,SSW,210,0.0,0.0,66,0.00,,,0.00,Wunderground v.1.15,2013-10-09 16:34:00,
2013-10-09 11:39:00,66.4,53.8,30.10,SW,216,0.0,0.0,64,0.00,,,0.00,Wunderground v.1.15,2013-10-09 16:39:00,
2013-10-09 11:45:00,66.6,54.9,30.10,West,266,0.0,0.0,66,0.00,,,0.00,Wunderground v.1.15,2013-10-09 16:45:00,
2013-10-09 11:51:00,67.0,55.7,30.10,SSE,159,0.0,0.0,67,0.00,,,0.00,Wunderground v.1.15,2013-10-09 16:51:00,
2013-10-09 11:57:00,67.2,53.7,30.10,SSW,208,0.0,0.0,62,0.00,,,0.00,Wunderground v.1.15,2013-10-09 16:57:00,
2013-10-09 12:03:00,67.3,54.3,30.09,ESE,116,0.0,0.0,63,0.00,,,0.00,Wunderground v.1.15,2013-10-09 17:03:00,
2013-10-09 12:09:00,67.9,55.7,30.09,SSW,198,0.0,0.0,65,0.00,,,0.00,Wunderground v.1.15,2013-10-09 17:09:00,
2013-10-09 12:14:00,68.4,55.3,30.09,SSW,199,0.0,0.0,63,0.00,,,0.00,Wunderground v.1.15,2013-10-09 17:14:00,
2013-10-09 12:20:00,68.8,54.3,30.09,West,261,0.0,0.0,60,0.00,,,0.00,Wunderground v.1.15,2013-10-09 17:20:00,
2013-10-09 12:26:00,68.8,54.3,30.09,SW,229,0.0,0.0,60,0.00,,,0.00,Wunderground v.1.15,2013-10-09 17:26:00,
2013-10-09 12:32:00,68.9,54.9,30.09,SSW,205,0.0,0.0,61,0.00,,,0.00,Wunderground v.1.15,2013-10-09 17:32:00,
2013-10-09 12:38:00,68.6,55.5,30.09,South,180,0.0,0.0,63,0.00,,,0.00,Wunderground v.1.15,2013-10-09 17:38:00,
2013-10-09 12:44:00,68.6,54.2,30.09,SSE,156,0.0,0.0,60,0.00,,,0.00,Wunderground v.1.15,2013-10-09 17:44:00,
2013-10-09 12:49:00,68.5,54.5,30.09,South,188,0.0,0.0,61,0.00,,,0.00,Wunderground v.1.15,2013-10-09 17:49:00,
2013-10-09 12:55:00,68.6,54.2,30.10,WSW,254,0.0,0.0,60,0.00,,,0.00,Wunderground v.1.15,2013-10-09 17:55:00,
2013-10-09 13:00:00,68.6,54.2,30.09,SSW,203,0.0,0.0,60,0.00,,,0.00,Wunderground v.1.15,2013-10-09 18:00:00,
2013-10-09 13:05:00,68.5,55.4,30.09,SE,145,0.0,0.0,63,0.00,,,0.00,Wunderground v.1.15,2013-10-09 18:05:00,
2013-10-09 13:11:00,68.9,55.8,30.09,SSW,199,0.0,0.0,63,0.00,,,0.00,Wunderground v.1.15,2013-10-09 18:11:00,
2013-10-09 13:17:00,69.1,55.1,30.09,NNE,14,0.0,0.0,61,0.00,,,0.00,Wunderground v.1.15,2013-10-09 18:17:00,
2013-10-09 13:22:00,68.8,53.4,30.08,SW,229,0.0,0.0,58,0.00,,,0.00,Wunderground v.1.15,2013-10-09 18:22:00,
2013-10-09 13:28:00,68.9,54.4,30.08,SSW,198,0.0,0.0,60,0.00,,,0.00,Wunderground v.1.15,2013-10-09 18:28:00,
2013-10-09 13:34:00,69.0,53.6,30.08,SW,234,0.0,0.0,58,0.00,,,0.00,Wunderground v.1.15,2013-10-09 18:34:00,
2013-10-09 13:39:00,69.1,54.6,30.08,NNW,348,0.0,0.0,60,0.00,,,0.00,Wunderground v.1.15,2013-10-09 18:39:00,
2013-10-09 13:45:00,69.0,53.6,30.08,SSW,199,0.0,0.0,58,0.00,,,0.00,Wunderground v.1.15,2013-10-09 18:45:00,
2013-10-09 13:51:00,68.8,53.4,30.08,SSE,157,0.0,0.0,58,0.00,,,0.00,Wunderground v.1.15,2013-10-09 18:51:00,
2013-10-09 13:56:00,68.8,53.4,30.07,WSW,257,0.0,0.0,58,0.00,,,0.00,Wunderground v.1.15,2013-10-09 18:56:00,
2013-10-09 14:02:00,69.1,55.1,30.07,SW,227,0.0,0.0,61,0.00,,,0.00,Wunderground v.1.15,2013-10-09 19:02:00,
2013-10-09 14:07:00,69.5,54.1,30.07,South,187,0.0,0.0,58,0.00,,,0.00,Wunderground v.1.15,2013-10-09 19:07:00,
2013-10-09 14:13:00,69.8,53.9,30.07,SSE,168,0.0,0.0,57,0.00,,,0.00,Wunderground v.1.15,2013-10-09 19:13:00,
2013-10-09 14:19:00,70.0,55.0,30.07,West,267,0.0,0.0,59,0.00,,,0.00,Wunderground v.1.15,2013-10-09 19:19:00,
2013-10-09 14:25:00,70.2,54.2,30.07,SE,144,0.0,0.0,57,0.00,,,0.00,Wunderground v.1.15,2013-10-09 19:25:00,
2013-10-09 14:31:00,70.4,53.5,30.07,SE,134,0.0,0.0,55,0.00,,,0.00,Wunderground v.1.15,2013-10-09 19:31:00,
2013-10-09 14:37:00,70.7,53.7,30.07,WSW,249,0.0,0.0,55,0.00,,,0.00,Wunderground v.1.15,2013-10-09 19:37:00,
2013-10-09 14:43:00,70.9,53.4,30.07,ESE,120,0.0,0.0,54,0.00,,,0.00,Wunderground v.1.15,2013-10-09 19:43:00,
2013-10-09 14:49:00,71.0,53.5,30.06,NE,50,0.0,0.0,54,0.00,,,0.00,Wunderground v.1.15,2013-10-09 19:49:00,
2013-10-09 14:54:00,71.0,54.5,30.06,East,88,0.0,0.0,56,0.00,,,0.00,Wunderground v.1.15,2013-10-09 19:54:00,
2013-10-09 15:00:00,71.1,54.6,30.06,SW,234,0.0,0.0,56,0.00,,,0.00,Wunderground v.1.15,2013-10-09 20:00:00,
2013-10-09 15:06:00,71.2,53.7,30.06,SE,130,0.0,0.0,54,0.00,,,0.00,Wunderground v.1.15,2013-10-09 20:06:00,
2013-10-09 15:12:00,71.2,54.2,30.06,SSE,161,0.0,0.0,55,0.00,,,0.00,Wunderground v.1.15,2013-10-09 20:12:00,
2013-10-09 15:18:00,71.2,52.7,30.06,South,176,0.0,0.0,52,0.00,,,0.00,Wunderground v.1.15,2013-10-09 20:18:00,
2013-10-09 15:24:00,71.5,53.5,30.06,South,191,0.0,0.0,53,0.00,,,0.00,Wunderground v.1.15,2013-10-09 20:24:00,
2013-10-09 15:30:00,71.5,54.5,30.06,South,181,0.0,0.0,55,0.00,,,0.00,Wunderground v.1.15,2013-10-09 20:30:00,
2013-10-09 15:36:00,71.3,52.8,30.06,SSW,205,0.0,0.0,52,0.00,,,0.00,Wunderground v.1.15,2013-10-09 20:36:00,
2013-10-09 15:42:00,71.4,52.3,30.06,South,171,0.0,0.0,51,0.00,,,0.00,Wunderground v.1.15,2013-10-09 20:42:00,
2013-10-09 15:47:00,71.3,52.2,30.06,East,88,0.0,0.0,51,0.00,,,0.00,Wunderground v.1.15,2013-10-09 20:47:00,
2013-10-09 15:53:00,71.3,53.3,30.06,SSE,151,0.0,0.0,53,0.00,,,0.00,Wunderground v.1.15,2013-10-09 20:53:00,
2013-10-09 15:59:00,71.5,54.5,30.06,East,101,0.0,0.0,55,0.00,,,0.00,Wunderground v.1.15,2013-10-09 20:59:00,
2013-10-09 16:05:00,71.5,52.4,30.06,SSE,162,0.0,0.0,51,0.00,,,0.00,Wunderground v.1.15,2013-10-09 21:05:00,
2013-10-09 16:10:00,71.3,52.2,30.06,South,178,0.0,0.0,51,0.00,,,0.00,Wunderground v.1.15,2013-10-09 21:10:00,
2013-10-09 16:16:00,71.1,52.6,30.06,SSE,161,0.0,0.0,52,0.00,,,0.00,Wunderground v.1.15,2013-10-09 21:16:00,
2013-10-09 16:22:00,71.1,52.6,30.06,East,100,0.0,0.0,52,0.00,,,0.00,Wunderground v.1.15,2013-10-09 21:22:00,
2013-10-09 16:27:00,71.2,53.2,30.06,SSW,193,0.0,0.0,53,0.00,,,0.00,Wunderground v.1.15,2013-10-09 21:27:00,
2013-10-09 16:33:00,71.4,53.9,30.06,SSW,207,0.0,0.0,54,0.00,,,0.00,Wunderground v.1.15,2013-10-09 21:33:00,
2013-10-09 16:39:00,71.2,54.7,30.06,SE,136,0.0,0.0,56,0.00,,,0.00,Wunderground v.1.15,2013-10-09 21:39:00,
2013-10-09 16:45:00,71.0,54.0,30.06,SSE,168,0.0,0.0,55,0.00,,,0.00,Wunderground v.1.15,2013-10-09 21:45:00,
2013-10-09 16:50:00,70.8,53.8,30.06,SSW,201,0.0,0.0,55,0.00,,,0.00,Wunderground v.1.15,2013-10-09 21:50:00,
2013-10-09 16:56:00,70.6,53.1,30.06,SSW,207,0.0,0.0,54,0.00,,,0.00,Wunderground v.1.15,2013-10-09 21:56:00,
2013-10-09 17:02:00,70.6,53.1,30.06,SSE,150,0.0,0.0,54,0.00,,,0.00,Wunderground v.1.15,2013-10-09 22:02:00,
2013-10-09 17:08:00,70.4,53.0,30.06,SSE,167,0.0,0.0,54,0.00,,,0.00,Wunderground v.1.15,2013-10-09 22:08:00,
2013-10-09 17:14:00,70.2,52.3,30.06,SSW,205,0.0,0.0,53,0.00,,,0.00,Wunderground v.1.15,2013-10-09 22:14:00,
2013-10-09 17:20:00,70.1,53.7,30.06,SSW,213,0.0,0.0,56,0.00,,,0.00,Wunderground v.1.15,2013-10-09 22:20:00,
2013-10-09 17:26:00,70.0,54.1,30.06,SE,130,0.0,0.0,57,0.00,,,0.00,Wunderground v.1.15,2013-10-09 22:26:00,
2013-10-09 17:32:00,69.6,52.7,30.06,SE,146,0.0,0.0,55,0.00,,,0.00,Wunderground v.1.15,2013-10-09 22:32:00,
2013-10-09 17:38:00,69.0,53.1,30.07,SSE,161,0.0,0.0,57,0.00,,,0.00,Wunderground v.1.15,2013-10-09 22:38:00,
2013-10-09 17:44:00,68.7,52.8,30.06,SE,143,0.0,0.0,57,0.00,,,0.00,Wunderground v.1.15,2013-10-09 22:44:00,
2013-10-09 17:49:00,68.6,53.7,30.06,South,169,0.0,0.0,59,0.00,,,0.00,Wunderground v.1.15,2013-10-09 22:49:00,
2013-10-09 17:55:00,68.2,54.2,30.06,SSW,207,0.0,0.0,61,0.00,,,0.00,Wunderground v.1.15,2013-10-09 22:55:00,
2013-10-09 18:00:00,67.7,53.3,30.06,SSE,168,0.0,0.0,60,0.00,,,0.00,Wunderground v.1.15,2013-10-09 23:00:00,
2013-10-09 18:06:00,67.4,53.0,30.06,SSE,168,0.0,0.0,60,0.00,,,0.00,Wunderground v.1.15,2013-10-09 23:06:00,
2013-10-09 18:11:00,66.7,53.3,30.06,SE,146,0.0,0.0,62,0.00,,,0.00,Wunderground v.1.15,2013-10-09 23:11:00,
2013-10-09 18:17:00,65.7,53.2,30.06,SE,146,0.0,0.0,64,0.00,,,0.00,Wunderground v.1.15,2013-10-09 23:17:00,
2013-10-09 18:23:00,64.6,52.1,30.06,SE,146,0.0,0.0,64,0.00,,,0.00,Wunderground v.1.15,2013-10-09 23:23:00,
2013-10-09 18:29:00,63.6,53.2,30.06,SE,146,0.0,0.0,69,0.00,,,0.00,Wunderground v.1.15,2013-10-09 23:29:00,
2013-10-09 18:35:00,62.5,53.0,30.06,SE,146,0.0,0.0,71,0.00,,,0.00,Wunderground v.1.15,2013-10-09 23:35:00,
2013-10-09 18:40:00,61.7,53.0,30.06,SE,146,0.0,0.0,73,0.00,,,0.00,Wunderground v.1.15,2013-10-09 23:40:00,
2013-10-09 18:46:00,60.8,51.7,30.06,SE,146,0.0,0.0,72,0.00,,,0.00,Wunderground v.1.15,2013-10-09 23:46:00,
2013-10-09 18:52:00,59.7,51.0,30.06,SE,146,0.0,0.0,73,0.00,,,0.00,Wunderground v.1.15,2013-10-09 23:52:00,
2013-10-09 18:58:00,58.7,51.9,30.06,SE,146,0.0,0.0,78,0.00,,,0.00,Wunderground v.1.15,2013-10-09 23:58:00,
2013-10-09 19:04:00,57.9,51.8,30.06,SE,146,0.0,0.0,80,0.00,,,0.00,Wunderground v.1.15,2013-10-10 00:04:00,
2013-10-09 19:10:00,57.3,50.8,30.06,SE,146,0.0,0.0,79,0.00,,,0.00,Wunderground v.1.15,2013-10-10 00:10:00,
2013-10-09 19:15:00,57.1,50.6,30.06,SE,146,0.0,0.0,79,0.00,,,0.00,Wunderground v.1.15,2013-10-10 00:15:00,
2013-10-09 19:21:00,56.9,49.8,30.07,SE,146,0.0,0.0,77,0.00,,,0.00,Wunderground v.1.15,2013-10-10 00:21:00,
2013-10-09 19:27:00,56.8,51.0,30.06,SE,146,0.0,0.0,81,0.00,,,0.00,Wunderground v.1.15,2013-10-10 00:27:00,
2013-10-09 19:33:00,56.6,50.8,30.07,SE,146,0.0,0.0,81,0.00,,,0.00,Wunderground v.1.15,2013-10-10 00:33:00,
2013-10-09 19:39:00,56.2,50.4,30.07,SE,146,0.0,0.0,81,0.00,,,0.00,Wunderground v.1.15,2013-10-10 00:39:00,
2013-10-09 19:45:00,55.9,50.2,30.07,SE,146,0.0,0.0,81,0.00,,,0.00,Wunderground v.1.15,2013-10-10 00:45:00,
2013-10-09 19:50:00,55.9,50.8,30.07,SE,146,0.0,0.0,83,0.00,,,0.00,Wunderground v.1.15,2013-10-10 00:50:00,
2013-10-09 19:56:00,55.5,49.8,30.07,SE,146,0.0,0.0,81,0.00,,,0.00,Wunderground v.1.15,2013-10-10 00:56:00,
2013-10-09 20:02:00,55.1,49.7,30.07,SE,146,0.0,0.0,82,0.00,,,0.00,Wunderground v.1.15,2013-10-10 01:02:00,
2013-10-09 20:08:00,54.9,49.8,30.07,SE,146,0.0,0.0,83,0.00,,,0.00,Wunderground v.1.15,2013-10-10 01:08:00,
2013-10-09 20:14:00,54.7,49.6,30.07,SE,146,0.0,0.0,83,0.00,,,0.00,Wunderground v.1.15,2013-10-10 01:14:00,
2013-10-09 20:20:00,54.4,49.3,30.07,SE,146,0.0,0.0,83,0.00,,,0.00,Wunderground v.1.15,2013-10-10 01:20:00,
2013-10-09 20:26:00,54.2,49.1,30.07,SE,146,0.0,0.0,83,0.00,,,0.00,Wunderground v.1.15,2013-10-10 01:26:00,
2013-10-09 20:31:00,54.3,49.6,30.07,SE,146,0.0,0.0,84,0.00,,,0.00,Wunderground v.1.15,2013-10-10 01:31:00,
2013-10-09 20:37:00,54.2,49.8,30.07,SE,146,0.0,0.0,85,0.00,,,0.00,Wunderground v.1.15,2013-10-10 01:37:00,
2013-10-09 20:43:00,54.1,49.7,30.07,SE,137,0.0,0.0,85,0.00,,,0.00,Wunderground v.1.15,2013-10-10 01:43:00,
2013-10-09 20:48:00,54.0,49.6,30.07,SE,142,0.0,0.0,85,0.00,,,0.00,Wunderground v.1.15,2013-10-10 01:48:00,
2013-10-09 20:54:00,54.0,49.6,30.07,SE,142,0.0,0.0,85,0.00,,,0.00,Wunderground v.1.15,2013-10-10 01:54:00,
2013-10-09 20:59:00,53.7,49.3,30.07,SSE,151,0.0,0.0,85,0.00,,,0.00,Wunderground v.1.15,2013-10-10 01:59:00,
2013-10-09 21:05:00,53.4,49.0,30.07,SSE,150,0.0,0.0,85,0.00,,,0.00,Wunderground v.1.15,2013-10-10 02:05:00,
2013-10-09 21:11:00,53.1,48.7,30.07,SSE,150,0.0,0.0,85,0.00,,,0.00,Wunderground v.1.15,2013-10-10 02:11:00,
2013-10-09 21:17:00,52.8,48.4,30.07,SSE,150,0.0,0.0,85,0.00,,,0.00,Wunderground v.1.15,2013-10-10 02:17:00,
2013-10-09 21:23:00,52.5,48.7,30.07,SSE,150,0.0,0.0,87,0.00,,,0.00,Wunderground v.1.15,2013-10-10 02:23:00,
2013-10-09 21:28:00,52.3,48.5,30.08,SSE,150,0.0,0.0,87,0.00,,,0.00,Wunderground v.1.15,2013-10-10 02:28:00,
2013-10-09 21:34:00,51.9,48.5,30.08,SSE,150,0.0,0.0,88,0.00,,,0.00,Wunderground v.1.15,2013-10-10 02:34:00,
2013-10-09 21:40:00,51.6,48.2,30.08,SSE,150,0.0,0.0,88,0.00,,,0.00,Wunderground v.1.15,2013-10-10 02:40:00,
2013-10-09 21:46:00,51.4,48.3,30.08,SSE,150,0.0,0.0,89,0.00,,,0.00,Wunderground v.1.15,2013-10-10 02:46:00,
2013-10-09 21:52:00,51.3,48.2,30.07,SSE,150,0.0,0.0,89,0.00,,,0.00,Wunderground v.1.15,2013-10-10 02:52:00,
2013-10-09 21:58:00,50.9,47.8,30.08,SSE,150,0.0,0.0,89,0.00,,,0.00,Wunderground v.1.15,2013-10-10 02:58:00,
2013-10-09 22:04:00,50.5,47.4,30.08,SSE,150,0.0,0.0,89,0.00,,,0.00,Wunderground v.1.15,2013-10-10 03:04:00,
2013-10-09 22:10:00,50.3,47.5,30.08,SSE,150,0.0,0.0,90,0.00,,,0.00,Wunderground v.1.15,2013-10-10 03:10:00,
2013-10-09 22:15:00,50.2,47.4,30.08,SSE,154,0.0,0.0,90,0.00,,,0.00,Wunderground v.1.15,2013-10-10 03:15:00,
2013-10-09 22:21:00,50.4,47.9,30.08,SSE,154,0.0,0.0,91,0.00,,,0.00,Wunderground v.1.15,2013-10-10 03:21:00,
2013-10-09 22:27:00,50.4,47.6,30.08,SSE,154,0.0,0.0,90,0.00,,,0.00,Wunderground v.1.15,2013-10-10 03:27:00,
2013-10-09 22:33:00,50.4,47.6,30.08,SSE,154,0.0,0.0,90,0.00,,,0.00,Wunderground v.1.15,2013-10-10 03:33:00,
2013-10-09 22:39:00,50.4,47.3,30.08,SSE,154,0.0,0.0,89,0.00,,,0.00,Wunderground v.1.15,2013-10-10 03:39:00,
2013-10-09 22:45:00,50.1,47.3,30.08,SSE,154,0.0,0.0,90,0.00,,,0.00,Wunderground v.1.15,2013-10-10 03:45:00,
2013-10-09 22:51:00,49.9,47.1,30.08,SSE,154,0.0,0.0,90,0.00,,,0.00,Wunderground v.1.15,2013-10-10 03:51:00,
2013-10-09 22:57:00,49.9,47.1,30.08,SSE,154,0.0,0.0,90,0.00,,,0.00,Wunderground v.1.15,2013-10-10 03:57:00,
2013-10-09 23:01:00,49.9,47.1,30.08,SSE,154,0.0,0.0,90,0.00,,,0.00,Wunderground v.1.15,2013-10-10 04:01:00,
2013-10-09 23:03:00,49.8,47.0,30.08,SSE,154,0.0,0.0,90,0.00,,,0.00,Wunderground v.1.15,2013-10-10 04:03:00,
2013-10-09 23:06:00,49.7,46.9,30.08,SSE,154,0.0,0.0,90,0.00,,,0.00,Wunderground v.1.15,2013-10-10 04:06:00,
2013-10-09 23:10:00,49.6,46.8,30.08,SSE,154,0.0,0.0,90,0.00,,,0.00,Wunderground v.1.15,2013-10-10 04:10:00,
2013-10-09 23:12:00,49.6,46.8,30.08,SSE,154,0.0,0.0,90,0.00,,,0.00,Wunderground v.1.15,2013-10-10 04:12:00,
2013-10-09 23:17:00,49.4,46.6,30.08,SSE,154,0.0,0.0,90,0.00,,,0.00,Wunderground v.1.15,2013-10-10 04:17:00,
2013-10-09 23:22:00,49.2,46.4,30.08,SSE,154,0.0,0.0,90,0.00,,,0.00,Wunderground v.1.15,2013-10-10 04:22:00,
2013-10-09 23:23:00,49.2,46.7,30.08,SSE,154,0.0,0.0,91,0.00,,,0.00,Wunderground v.1.15,2013-10-10 04:23:00,
2013-10-09 23:28:00,49.2,46.4,30.08,SSE,154,0.0,0.0,90,0.00,,,0.00,Wunderground v.1.15,2013-10-10 04:28:00,
2013-10-09 23:34:00,48.8,46.0,30.08,SSE,154,0.0,0.0,90,0.00,,,0.00,Wunderground v.1.15,2013-10-10 04:34:00,
2013-10-09 23:40:00,48.5,46.0,30.08,SSE,154,0.0,0.0,91,0.00,,,0.00,Wunderground v.1.15,2013-10-10 04:40:00,
2013-10-09 23:45:00,48.4,45.9,30.08,SSE,154,0.0,0.0,91,0.00,,,0.00,Wunderground v.1.15,2013-10-10 04:45:00,
2013-10-09 23:51:00,48.2,45.7,30.08,SSE,154,0.0,0.0,91,0.00,,,0.00,Wunderground v.1.15,2013-10-10 04:51:00,
2013-10-09 23:57:00,48.0,45.8,30.08,SSE,154,0.0,0.0,92,0.00,,,0.00,Wunderground v.1.15,2013-10-10 04:57:00,